This is the latest recevied weather packets stored in our database for station/object SQ9SMC-13. If no packets are shown the sender has not sent any weather packets the latest 10 day(s).
| Time | Temp. | Humidity | Pressure | Rain* | Wind** | Luminosity | Snow |
|---|---|---|---|---|---|---|---|
| 1777695002 | 1.11° C | 99% | 1027.1 hPa | 0 mm | - | 30 W/m² | - |
| 1777694703 | 0.56° C | 99% | 1027 hPa | 0 mm | - | 27 W/m² | - |
| 1777694403 | 0.56° C | 99% | 1027 hPa | 0 mm | - | 22 W/m² | - |
| 1777694103 | 0° C | 99% | 1026.6 hPa | 0 mm | - | 17 W/m² | - |
| 1777693802 | 0° C | 99% | 1026.9 hPa | 0 mm | - | 13 W/m² | - |
| 1777693504 | 0° C | 99% | 1026.9 hPa | 0 mm | - | 10 W/m² | - |
| 1777693204 | 0° C | 99% | 1026.8 hPa | 0 mm | - | 8 W/m² | - |
| 1777692903 | 0° C | 99% | 1026.8 hPa | 0 mm | - | 6 W/m² | - |
| 1777692603 | 0° C | 99% | 1026.8 hPa | 0 mm | - | 5 W/m² | - |
| 1777692303 | -0.56° C | 99% | 1026.7 hPa | 0 mm | - | 3 W/m² | - |
| 1777692003 | -0.56° C | 99% | 1026.7 hPa | 0 mm | - | 2 W/m² | - |
| 1777691705 | -0.56° C | 99% | 1026.7 hPa | 0 mm | - | 1 W/m² | - |
| 1777691404 | 0° C | 99% | 1026.5 hPa | 0 mm | - | 1 W/m² | - |
| 1777691104 | 0° C | 99% | 1026.8 hPa | 0 mm | - | 0 W/m² | - |
| 1777690803 | 0° C | 99% | 1026.8 hPa | 0 mm | - | 0 W/m² | - |
| 1777690503 | 0° C | 99% | 1026.7 hPa | 0 mm | - | 0 W/m² | - |
| 1777690204 | 0° C | 99% | 1026.7 hPa | 0 mm | - | 0 W/m² | - |
| 1777689903 | 0° C | 99% | 1026.7 hPa | 0 mm | - | 0 W/m² | - |
| 1777689604 | 0° C | 99% | 1026.6 hPa | 0 mm | - | 0 W/m² | - |
| 1777689303 | 0° C | 99% | 1026.6 hPa | 0 mm | - | 0 W/m² | - |
| 1777689003 | 0.56° C | 99% | 1026.7 hPa | 0 mm | - | 0 W/m² | - |
| 1777688703 | 0° C | 99% | 1026.9 hPa | 0 mm | - | 0 W/m² | - |
| 1777688403 | 0° C | 99% | 1026.8 hPa | 0 mm | - | 0 W/m² | - |
| 1777688103 | 0° C | 99% | 1026.6 hPa | 0 mm | - | 0 W/m² | - |
| 1777687803 | 0° C | 98% | 1026.7 hPa | 0 mm | - | 0 W/m² | - |
* Rain latest hour (hover to see other rain measurements)
** Current wind speed in m/s (hover to see current wind gust speed)